GSAT0206 (GALILEO 10)

Last updated on Thu Jul 03 2025 00:02:33 GMT+0000 (Coordinated Universal Time)

1 40890U 15045B 25183.26611512 .00000033 00000+0 00000+0 0 9993 2 40890 55.0598 231.2650 0001616 316.7507 43.3124 1.70473752 61074
UTC large
Height (km)
Speed (km/s)
/
Latitude / Longitude
Inclination (degrees)
Orbital Period (minutes)
Azimuth
Elevation
Range (km)
Doppler Factor

Next 0 passes for location: London (51.5072 / 0.1276)

Sorry there are no passes over London.